Weather in Varazdin

Croatia     46°18′42″N   16°20′17″E
В апреле 2022 года жителям России запретили посещать сайт meteo.paraplan.net по решению Генеральной прокуратуры. Аудитория сайта уменьшилась в 10 раз. Владельцы сайта не видят смысла в поддержке погодного сервера в таких условиях. Сайт будет закрыт в октябре.
temp.,
°C
wind,
m/s
gust,
m/s
humid.,
%
clouds,
%
prec.,
mm/h
press.,
hPa
HPBL,
m
25 september, sun
sun2523:00+13ssw31083100 0.0 1015383
02:00+13ssw3888100 0.1 1015247
05:00+14ssw41177100 0.0 1014644
08:00+12s2587100 0.1 1014212
11:00+12sse1491100 0.4 1014268
14:00+13s2585100 0.6 1013373
17:00+14sse2384100 0.1 1011359
20:00+12s1197100 0.5 101221
26 september, mon
mon2623:00+12s1198100 0.1 101125
02:00+13ssw1197100 0.4 101051
05:00+13ssw1198100 0.1 100936
08:00+13nnw1198100 0.4 1009119
11:00+13n2496100 0.4 1010352
14:00+13ene2693100 0.6 1009463
17:00+14ene1487100 0.0 1008469
20:00+11ne119339 0.1 100710
27 september, tue
tue2723:00+10s11940 0.1 100710
02:00+9sw11965 0.1 100514
05:00+9s1196100 0.0 100316
08:00+11sse1195100 0.1 100384
11:00+12sw0296100 1.9 1003223
14:00+10nne3896100 3.9 1005537
17:00+10ne2696100 4.3 1005371
20:00+10nnw2297100 5.3 100787
28 september, wed
wed2823:00+10wsw2396100 0.1 100881
02:00+10ssw119684 0.1 100827
05:00+10se1196100 0.0 100718
08:00+10se1295100 0.0 1007125
11:00+13s3679100 0.0 1005595
14:00+16s4667100 0.0 1003768
17:00+15s2578100 0.0 1002431
20:00+13s2291100 0.0 100224
29 september, thu
thu2923:00+13s1191100 0.1 100126
02:00+12sse1197100 1.4 100225
05:00+12nw1199100 0.8 100273
08:00+12n2498100 0.9 1004356
11:00+11ne3894100 0.3 1006651
14:00+10ne3795100 1.6 1007494
17:00+10nnw1496100 1.3 1009401
20:00+10nnw129620 1.3 101085